EW7659 Weather Reports


Display with metric or nautical units.
time (UTC)temp
F
wind
direction
speed
MPH
gust
MPH
rain 1hr
in
rain 24hr
in
rain mn
in
humidity
%
barometer
mb
20260902212727 100 150 1.0 14.0 0.00 0.00 0.00 35 1006.9
20260902212709 100 138 3.0 15.0 0.00 0.00 0.00 35 1006.9
20260902211725 100 165 3.0 15.0 0.00 0.00 0.00 35 1007.0
20260902211224 101 152 1.0 10.0 0.00 0.00 0.00 34 1007.2
20260902210725 101 167 2.0 11.0 0.00 0.00 0.00 33 1007.3
20260902210223 100 148 3.0 12.0 0.00 0.00 0.00 33 1007.2
20260902205722 100 220 3.0 12.0 0.00 0.00 0.00 33 1007.4
20260902205216 100 187 2.0 11.0 0.00 0.00 0.00 33 1007.4
20260902204710 100 148 2.0 11.0 0.00 0.00 0.00 34 1007.4
20260902204205 100 220 2.0 14.0 0.00 0.00 0.00 33 1007.4
20260902203705 100 174 4.0 14.0 0.00 0.00 0.00 33 1007.6
20260902203205 100 157 5.0 14.0 0.00 0.00 0.00 33 1007.7
20260902202702 100 141 4.0 14.0 0.00 0.00 0.00 33 1007.7
20260902202203 100 193 3.0 14.0 0.00 0.00 0.00 33 1007.8
20260902201703 100 181 3.0 14.0 0.00 0.00 0.00 33 1008.0
20260902201203 100 161 2.0 9.0 0.00 0.00 0.00 34 1007.9
20260902200927 100 157 2.0 10.0 0.00 0.00 0.00 36 1007.9
20260902200202 100 164 2.0 10.0 0.00 0.00 0.00 35 1008.0
20260902195703 100 273 2.0 15.0 0.00 0.00 0.00 35 1008.2
20260902195203 100 151 1.0 15.0 0.00 0.00 0.00 35 1008.2
20260902194703 99 143 1.0 11.0 0.00 0.00 0.00 36 1008.3
20260902194203 99 161 2.0 11.0 0.00 0.00 0.00 36 1008.4
20260902193702 99 171 5.0 12.0 0.00 0.00 0.00 35 1008.5
20260902193203 99 149 4.0 12.0 0.00 0.00 0.00 35 1008.6
20260902192702 99 146 2.0 13.0 0.00 0.00 0.00 36 1008.7
20260902192202 99 157 2.0 14.0 0.00 0.00 0.00 37 1008.8
20260902191708 99 131 1.0 14.0 0.00 0.00 0.00 36 1008.8
20260902191206 99 175 2.0 10.0 0.00 0.00 0.00 35 1008.8
20260902190705 99 173 3.0 10.0 0.00 0.00 0.00 37 1009.0
20260902190659 98 169 2.0 10.0 0.00 0.00 0.00 38 1009.0
20260902185702 99 168 1.0 10.0 0.00 0.00 0.00 36 1009.1
20260902185657 99 161 0.0 5.0 0.00 0.00 0.00 37 1009.1
20260902184703 99 142 1.0 15.0 0.00 0.00 0.00 38 1009.2
20260902184202 99 175 1.0 15.0 0.00 0.00 0.00 38 1009.2
20260902183702 99 173 1.0 7.0 0.00 0.00 0.00 38 1009.3
20260902183202 99 202 2.0 10.0 0.00 0.00 0.00 39 1009.3
20260902182929 98 236 3.0 11.0 0.00 0.00 0.00 37 1009.5
20260902182202 98 169 1.0 11.0 0.00 0.00 0.00 37 1009.5
20260902181703 98 163 0.0 9.0 0.00 0.00 0.00 38 1009.6
20260902181423 98 229 1.0 8.0 0.00 0.00 0.00 39 1009.7
20260902180702 98 176 1.0 9.0 0.00 0.00 0.00 38 1009.7
20260902180202 98 173 1.0 9.0 0.00 0.00 0.00 40 1009.8
20260902175702 97 204 1.0 8.0 0.00 0.00 0.00 42 1009.8
20260902175203 96 245 1.0 8.0 0.00 0.00 0.00 42 1009.9
20260902174930 96 174 3.0 11.0 0.00 0.00 0.00 42 1009.9
20260902174203 96 173 3.0 11.0 0.00 0.00 0.00 42 1010.0
20260902174144 96 166 1.0 7.0 0.00 0.00 0.00 42 1010.1
20260902173202 96 173 2.0 13.0 0.00 0.00 0.00 42 1010.2
20260902172921 96 184 3.0 16.0 0.00 0.00 0.00 43 1010.3
20260902172420 95 154 2.0 16.0 0.00 0.00 0.00 44 1010.3
20260902171702 96 158 2.0 13.0 0.00 0.00 0.00 44 1010.4
20260902171203 96 167 1.0 10.0 0.00 0.00 0.00 43 1010.4
20260902170703 96 175 0.0 9.0 0.00 0.00 0.00 43 1010.5
20260902170202 96 190 0.0 9.0 0.00 0.00 0.00 45 1010.5
20260902165702 95 201 1.0 10.0 0.00 0.00 0.00 45 1010.6
20260902165202 95 202 1.0 10.0 0.00 0.00 0.00 44 1010.6
20260902164702 95 174 1.0 7.0 0.00 0.00 0.00 46 1010.8
20260902164202 94 117 1.0 9.0 0.00 0.00 0.00 46 1010.8
20260902163702 94 175 1.0 9.0 0.00 0.00 0.00 46 1010.8
20260902163425 94 196 1.0 9.0 0.00 0.00 0.00 47 1010.8
20260902162703 94 167 1.0 9.0 0.00 0.00 0.00 48 1010.8
20260902162157 94 169 1.0 9.0 0.00 0.00 0.00 47 1010.8
20260902161651 94 210 0.0 6.0 0.00 0.00 0.00 48 1010.9
20260902161403 93 178 0.0 6.0 0.00 0.00 0.00 49 1010.9
20260902160638 92 170 1.0 9.0 0.00 0.00 0.00 50 1010.9
20260902160132 92 257 2.0 11.0 0.00 0.00 0.00 50 1010.9
20260902155632 92 181 2.0 11.0 0.00 0.00 0.00 50 1011.0
20260902155132 92 251 1.0 9.0 0.00 0.00 0.00 50 1011.0
20260902154632 91 195 2.0 8.0 0.00 0.00 0.00 52 1011.0
20260902154132 91 194 3.0 11.0 0.00 0.00 0.00 53 1011.0
20260902153855 91 161 2.0 11.0 0.00 0.00 0.00 53 1011.0
20260902153132 90 242 2.0 10.0 0.00 0.00 0.00 54 1010.9
20260902152632 90 178 2.0 11.0 0.00 0.00 0.00 54 1011.0
20260902152355 89 181 2.0 11.0 0.00 0.00 0.00 54 1011.0
20260902152126 89 173 2.0 10.0 0.00 0.00 0.00 55 1011.0
20260902151132 89 165 3.0 10.0 0.00 0.00 0.00 55 1011.1
20260902150630 88 186 2.0 7.0 0.00 0.00 0.00 56 1011.1
20260902150130 88 181 1.0 7.0 0.00 0.00 0.00 56 1011.1
20260902145847 88 171 1.0 10.0 0.00 0.00 0.00 57 1011.1
20260902145131 87 182 2.0 14.0 0.00 0.00 0.00 57 1011.1
20260902144859 87 173 1.0 14.0 0.00 0.00 0.00 58 1011.1
20260902144130 86 191 0.0 2.0 0.00 0.00 0.00 59 1011.1
20260902143630 86 169 0.0 5.0 0.00 0.00 0.00 60 1011.1
20260902143130 85 171 0.0 5.0 0.00 0.00 0.00 61 1011.1
20260902142630 85 162 0.0 2.0 0.00 0.00 0.00 61 1011.1
20260902142129 84 182 0.0 9.0 0.00 0.00 0.00 62 1011.1
20260902141631 84 176 1.0 9.0 0.00 0.00 0.00 63 1011.1
20260902141613 83 182 0.0 7.0 0.00 0.00 0.00 63 1011.1
20260902140631 83 169 0.0 6.0 0.00 0.00 0.00 63 1011.0
20260902140131 83 186 0.0 6.0 0.00 0.00 0.00 64 1011.1
20260902135630 83 171 0.0 5.0 0.00 0.00 0.00 65 1011.1
20260902135130 82 167 0.0 5.0 0.00 0.00 0.00 65 1011.1
20260902134630 82 166 0.0 7.0 0.00 0.00 0.00 66 1011.1
20260902134355 81 165 0.0 7.0 0.00 0.00 0.00 66 1011.1
20260902133629 81 172 0.0 1.0 0.00 0.00 0.00 67 1011.1
20260902133130 80 172 0.0 1.0 0.00 0.00 0.00 68 1011.2
20260902132630 80 166 1.0 6.0 0.00 0.00 0.00 69 1011.1
20260902132130 79 165 1.0 6.0 0.00 0.00 0.00 69 1011.0
20260902131852 79 173 0.0 5.0 0.00 0.00 0.00 70 1011.0
20260902131130 79 177 0.0 0.0 0.00 0.00 0.00 70 1011.0
20260902130630 78 175 0.0 4.0 0.00 0.00 0.00 71 1010.9
20260902130130 78 169 0.0 4.0 0.00 0.00 0.00 72 1011.0
20260902125630 78 169 0.0 4.0 0.00 0.00 0.00 72 1011.0
20260902125129 77 167 0.0 3.0 0.00 0.00 0.00 73 1011.0
20260902124630 77 168 1.0 6.0 0.00 0.00 0.00 73 1011.0
20260902124130 77 168 1.0 6.0 0.00 0.00 0.00 74 1010.9
20260902123630 76 169 0.0 4.0 0.00 0.00 0.00 74 1010.9
20260902123130 76 169 0.0 0.0 0.00 0.00 0.00 74 1010.8
20260902122631 76 169 0.0 4.0 0.00 0.00 0.00 73 1010.7
20260902122130 76 169 0.0 4.0 0.00 0.00 0.00 73 1010.7
20260902121630 76 169 0.0 0.0 0.00 0.00 0.00 73 1010.6
20260902121130 76 169 0.0 0.0 0.00 0.00 0.00 73 1010.6
20260902120630 76 169 0.0 0.0 0.00 0.00 0.00 73 1010.5
20260902120130 77 168 0.0 0.0 0.00 0.00 0.00 72 1010.5
20260902115853 77 169 0.0 0.0 0.00 0.00 0.00 72 1010.4
20260902115130 77 169 0.0 0.0 0.00 0.00 0.00 72 1010.4
20260902114630 77 169 0.0 0.0 0.00 0.00 0.00 72 1010.3
20260902114130 77 169 0.0 0.0 0.00 0.00 0.00 72 1010.2
20260902113631 77 169 0.0 0.0 0.00 0.00 0.00 71 1010.2
20260902113130 77 169 0.0 0.0 0.00 0.00 0.00 71 1010.2
20260902112631 77 169 0.0 0.0 0.00 0.00 0.00 70 1010.1
20260902112131 77 169 0.0 0.0 0.00 0.00 0.00 70 1010.0
20260902111630 78 169 0.0 0.0 0.00 0.00 0.00 70 1010.1
20260902111359 78 169 0.0 0.0 0.00 0.00 0.00 70 1010.0
20260902110849 78 169 0.0 1.0 0.00 0.00 0.00 69 1010.0
20260902110128 78 169 0.0 1.0 0.00 0.00 0.00 69 1009.9
20260902105626 78 169 0.0 2.0 0.00 0.00 0.00 69 1009.9
20260902105124 78 169 0.0 2.0 0.00 0.00 0.00 69 1009.9
20260902104848 78 169 0.0 5.0 0.00 0.00 0.00 68 1009.9
20260902104120 78 169 0.0 6.0 0.00 0.00 0.00 68 1009.9
20260902103618 78 169 0.0 6.0 0.00 0.00 0.00 68 1009.9
20260902103114 78 171 0.0 1.0 0.00 0.00 0.00 68 1009.9
20260902102614 78 171 0.0 0.0 0.00 0.00 0.00 68 1009.9
20260902102113 78 171 0.0 0.0 0.00 0.00 0.00 68 1009.8
20260902101610 78 171 0.0 0.0 0.00 0.00 0.00 68 1009.9
20260902101108 78 171 0.0 0.0 0.00 0.00 0.00 68 1009.9
20260902100604 78 171 0.0 0.0 0.00 0.00 0.00 67 1009.9
20260902100104 78 171 0.0 0.0 0.00 0.00 0.00 67 1009.7
20260902095608 78 170 0.0 0.0 0.00 0.00 0.00 68 1009.8
20260902095328 78 170 0.0 0.0 0.00 0.00 0.00 68 1009.7
20260902094554 78 170 0.0 0.0 0.00 0.00 0.00 68 1009.8
20260902094329 79 171 0.0 1.0 0.00 0.00 0.00 68 1009.7
20260902093555 79 167 0.0 5.0 0.00 0.00 0.00 67 1009.7
20260902093053 79 167 0.0 5.0 0.00 0.00 0.00 67 1009.6
20260902092552 79 167 0.0 0.0 0.00 0.00 0.00 67 1009.5
20260902092313 79 168 0.0 0.0 0.00 0.00 0.00 67 1009.5
20260902091545 79 168 0.0 0.0 0.00 0.00 0.00 67 1009.5
20260902091046 79 168 0.0 0.0 0.00 0.00 0.00 68 1009.5
20260902090544 79 167 0.0 0.0 0.00 0.00 0.00 68 1009.3
20260902090042 78 168 0.0 0.0 0.00 0.00 0.00 68 1009.4
20260902085540 78 168 0.0 1.0 0.00 0.00 0.00 68 1009.5
20260902085038 78 168 0.0 1.0 0.00 0.00 0.00 68 1009.5
20260902084537 78 169 0.0 1.0 0.00 0.00 0.00 68 1009.5
20260902084037 78 169 0.0 2.0 0.00 0.00 0.00 67 1009.5
20260902083535 79 168 0.0 2.0 0.00 0.00 0.00 67 1009.4
20260902083034 79 169 0.0 0.0 0.00 0.00 0.00 67 1009.4
20260902082534 79 169 0.0 0.0 0.00 0.00 0.00 66 1009.4
20260902082033 79 169 0.0 0.0 0.00 0.00 0.00 66 1009.3
20260902081531 79 169 0.0 0.0 0.00 0.00 0.00 65 1009.3
20260902081252 80 169 0.0 0.0 0.00 0.00 0.00 65 1009.4
20260902080531 80 169 0.0 0.0 0.00 0.00 0.00 64 1009.4
20260902080025 80 169 0.0 0.0 0.00 0.00 0.00 64 1009.4
20260902075526 80 169 0.0 4.0 0.00 0.00 0.00 63 1009.3
20260902075023 80 169 0.0 5.0 0.00 0.00 0.00 63 1009.2
20260902074742 81 170 0.0 5.0 0.00 0.00 0.00 62 1009.3
20260902074023 81 165 0.0 0.0 0.00 0.00 0.00 62 1009.2
20260902074011 81 166 0.0 0.0 0.00 0.00 0.00 61 1009.3
20260902073019 81 171 0.0 0.0 0.00 0.00 0.00 61 1009.3
20260902072520 81 170 0.0 0.0 0.00 0.00 0.00 60 1009.3
20260902072239 82 170 0.0 0.0 0.00 0.00 0.00 59 1009.2
20260902071525 82 167 0.0 0.0 0.00 0.00 0.00 58 1009.3
20260902071015 82 168 0.0 0.0 0.00 0.00 0.00 57 1009.2
20260902070514 83 168 0.0 0.0 0.00 0.00 0.00 57 1009.2
20260902070011 83 168 0.0 0.0 0.00 0.00 0.00 56 1009.2
20260902065509 83 169 0.0 1.0 0.00 0.00 0.00 56 1009.2
20260902065007 83 169 0.0 1.0 0.00 0.00 0.00 56 1009.2
20260902064507 83 169 0.0 0.0 0.00 0.00 0.00 56 1009.2
20260902064008 83 169 0.0 0.0 0.00 0.00 0.00 55 1009.2
20260902063505 83 169 0.0 0.0 0.00 0.00 0.00 55 1009.2
20260902063016 83 169 0.0 0.0 0.00 0.00 0.00 56 1009.3
20260902062502 83 167 0.0 0.0 0.00 0.00 0.00 56 1009.2
20260902062003 83 166 0.0 0.0 0.00 0.00 0.00 56 1009.2
20260902061502 82 166 0.0 0.0 0.00 0.00 0.00 57 1009.1
20260902061436 82 166 0.0 0.0 0.00 0.00 0.00 57 1009.2
20260902060712 82 167 0.0 0.0 0.00 0.00 0.00 57 1009.2
20260902055943 82 167 0.0 1.0 0.00 0.00 0.00 57 1009.1
20260902055437 82 167 0.0 1.0 0.00 0.00 0.00 57 1009.1
20260902054931 82 166 0.0 0.0 0.00 0.00 0.00 57 1009.1
20260902054432 82 167 0.0 0.0 0.00 0.00 0.00 57 1009.1
20260902053932 82 166 0.0 0.0 0.00 0.00 0.00 57 1009.1
20260902053432 83 170 0.0 0.0 0.00 0.00 0.00 56 1008.9
20260902052932 83 170 0.0 0.0 0.00 0.00 0.00 56 1008.9
20260902052431 83 170 0.0 0.0 0.00 0.00 0.00 56 1008.9
20260902051932 83 170 0.0 0.0 0.00 0.00 0.00 55 1008.9
20260902051431 83 170 0.0 0.0 0.00 0.00 0.00 55 1009.0
20260902050929 83 170 0.0 0.0 0.00 0.00 0.00 56 1009.0
20260902050758 83 170 0.0 0.0 0.00 0.00 0.00 56 1009.0
20260902050749 83 170 0.0 0.0 0.00 0.00 0.00 55 1009.0
20260902050528 83 170 0.0 0.0 0.00 0.00 0.00 56 1009.0
20260902050520 83 170 0.0 0.0 0.00 0.00 0.00 55 1009.0
20260902044927 83 170 0.0 0.0 0.00 0.00 0.00 55 1009.0
20260902044427 83 170 0.0 0.0 0.00 0.00 0.00 55 1009.0
20260902043928 83 170 0.0 0.0 0.00 0.00 0.00 55 1009.0
20260902043427 83 170 0.0 0.0 0.00 0.00 0.00 55 1009.0
20260902042927 83 170 0.0 0.0 0.00 0.00 0.00 55 1009.1
20260902042427 83 170 0.0 0.0 0.00 0.00 0.00 54 1009.1
20260902042146 83 170 0.0 0.0 0.00 0.00 0.00 55 1009.0
20260902041647 83 170 0.0 0.0 0.00 0.00 0.00 55 1009.0
20260902040927 83 170 0.0 0.0 0.00 0.00 0.00 55 1009.0
20260902040427 83 170 0.0 0.0 0.00 0.00 0.00 55 1009.0
20260902035927 83 170 0.0 0.0 0.00 0.00 0.00 55 1009.0
20260902035427 83 170 0.0 0.0 0.00 0.00 0.00 55 1009.0
20260902035149 83 170 0.0 0.0 0.00 0.00 0.00 55 1009.0
20260902034426 83 170 0.0 0.0 0.00 0.00 0.00 56 1009.0
20260902033926 82 170 0.0 0.0 0.00 0.00 0.00 56 1009.0
20260902033427 82 170 0.0 0.0 0.00 0.00 0.00 56 1009.0
20260902032927 83 170 0.0 0.0 0.00 0.00 0.00 56 1009.0
20260902032426 83 170 0.0 0.0 0.00 0.00 0.00 55 1009.0
20260902031928 83 170 0.0 0.0 0.00 0.00 0.00 55 1008.9
20260902031428 83 170 0.0 0.0 0.00 0.00 0.00 55 1008.8
20260902030922 83 170 0.0 0.0 0.00 0.00 0.00 54 1008.9
20260902030421 84 170 0.0 0.0 0.00 0.00 0.00 54 1008.8
20260902025919 84 170 0.0 0.0 0.00 0.00 0.00 53 1008.7
20260902025419 84 170 0.0 0.0 0.00 0.00 0.00 53 1008.6
20260902024918 85 170 0.0 0.0 0.00 0.00 0.00 52 1008.5
20260902024417 85 170 0.0 0.0 0.00 0.00 0.00 52 1008.4
20260902023915 85 170 0.0 0.0 0.00 0.00 0.00 51 1008.4
20260902023413 85 170 0.0 0.0 0.00 0.00 0.00 50 1008.3
20260902023133 86 170 0.0 0.0 0.00 0.00 0.00 50 1008.2
20260902022409 86 170 0.0 0.0 0.00 0.00 0.00 49 1008.2
20260902021907 87 170 0.0 0.0 0.00 0.00 0.00 48 1008.1
20260902021406 87 170 0.0 0.0 0.00 0.00 0.00 48 1008.0
20260902020907 87 170 0.0 0.0 0.00 0.00 0.00 47 1008.0
20260902020405 88 170 0.0 0.0 0.00 0.00 0.00 46 1007.9
20260902015904 88 170 0.0 0.0 0.00 0.00 0.00 45 1007.9
20260902015625 89 170 0.0 0.0 0.00 0.00 0.00 45 1007.8
20260902014902 89 170 0.0 0.0 0.00 0.00 0.00 44 1007.8
20260902014402 90 170 0.0 0.0 0.00 0.00 0.00 44 1007.8
20260902013858 90 170 0.0 0.0 0.00 0.00 0.00 43 1007.7
20260902013352 91 170 0.0 0.0 0.00 0.00 0.00 42 1007.7
20260902012853 91 170 0.0 0.0 0.00 0.00 0.00 41 1007.6
20260902012353 92 170 0.0 0.0 0.00 0.00 0.00 41 1007.6
20260902011853 92 170 0.0 0.0 0.00 0.00 0.00 40 1007.5
20260902011351 92 170 0.0 0.0 0.00 0.00 0.00 40 1007.5
20260902011114 93 170 0.0 0.0 0.00 0.00 0.00 39 1007.6
20260902010833 93 170 0.0 0.0 0.00 0.00 0.00 39 1007.6
20260902005845 94 170 0.0 1.0 0.00 0.00 0.00 38 1007.6
20260902005343 94 170 0.0 1.0 0.00 0.00 0.00 38 1007.6
20260902004841 94 170 0.0 1.0 0.00 0.00 0.00 37 1007.6
20260902004604 95 170 0.0 5.0 0.00 0.00 0.00 37 1007.6
20260902003841 95 170 0.0 5.0 0.00 0.00 0.00 36 1007.6
20260902003339 95 170 0.0 1.0 0.00 0.00 0.00 36 1007.6
20260902002839 96 170 0.0 1.0 0.00 0.00 0.00 35 1007.6
20260902002558 96 169 0.0 1.0 0.00 0.00 0.00 35 1007.8
20260902001838 96 170 0.0 0.0 0.00 0.00 0.00 35 1007.7
20260902001334 96 173 0.0 0.0 0.00 0.00 0.00 34 1007.8
20260902000833 97 173 0.0 1.0 0.00 0.00 0.00 34 1007.8
20260902000331 97 167 0.0 1.0 0.00 0.00 0.00 34 1007.8
20260901235830 97 159 0.0 0.0 0.00 0.00 0.00 34 1007.7
20260901235330 98 159 0.0 6.0 0.00 0.00 0.00 33 1007.8
20260901234830 98 153 1.0 11.0 0.00 0.00 0.00 33 1007.8
20260901234330 98 176 1.0 11.0 0.00 0.00 0.00 33 1007.9
20260901233831 98 163 0.0 0.0 0.00 0.00 0.00 33 1007.9
20260901233329 98 161 0.0 1.0 0.00 0.00 0.00 33 1007.9
20260901233056 98 167 0.0 1.0 0.00 0.00 0.00 33 1008.0
20260901232330 98 165 1.0 9.0 0.00 0.00 0.00 33 1008.0
20260901231830 99 178 1.0 9.0 0.00 0.00 0.00 32 1008.1
20260901231330 99 169 0.0 7.0 0.00 0.00 0.00 32 1008.0
20260901230830 99 169 0.0 9.0 0.00 0.00 0.00 32 1008.0
20260901230331 99 173 1.0 9.0 0.00 0.00 0.00 32 1008.0
20260901225830 99 163 1.0 9.0 0.00 0.00 0.00 32 1008.0
20260901225331 99 160 0.0 3.0 0.00 0.00 0.00 32 1007.9
20260901224831 99 153 0.0 9.0 0.00 0.00 0.00 33 1007.9
20260901224330 99 194 0.0 9.0 0.00 0.00 0.00 32 1008.0
20260901223831 99 150 0.0 3.0 0.00 0.00 0.00 33 1008.0
20260901223551 99 175 0.0 6.0 0.00 0.00 0.00 33 1008.0
20260901222831 100 177 0.0 6.0 0.00 0.00 0.00 32 1008.0
20260901222324 100 176 0.0 2.0 0.00 0.00 0.00 32 1008.0
20260901222038 100 176 0.0 2.0 0.00 0.00 0.00 32 1008.0
20260901221312 100 165 0.0 1.0 0.00 0.00 0.00 32 1008.0
20260901221027 100 175 1.0 12.0 0.00 0.00 0.00 32 1008.1
20260901220304 100 157 2.0 12.0 0.00 0.00 0.00 32 1008.1
20260901220026 100 172 1.0 10.0 0.00 0.00 0.00 32 1008.1
20260901215306 100 168 0.0 9.0 0.00 0.00 0.00 32 1008.1
20260901214804 100 152 0.0 5.0 0.00 0.00 0.00 32 1008.2
20260901214305 100 177 1.0 7.0 0.00 0.00 0.00 32 1008.2
20260901213805 100 196 1.0 7.0 0.00 0.00 0.00 32 1008.2
20260901213305 100 189 0.0 14.0 0.00 0.00 0.00 32 1008.3